Nashua, NH

8:12 PM EST on February 05, 2016 (GMT -0500)
Boire

Weather History for KASH - November, 2014

Change the Weather History Date:

Monday, November 3, 2014

  Actual Average Record
Temperature  
Mean Temperature 43 °F -  
Max Temperature 52 °F 57 °F 81 °F (1950)
Min Temperature 32 °F 35 °F 18 °F (1980)
Degree Days  
Heating Degree Days 22    
Moisture  
Dew Point 16 °F    
Average Humidity 42    
Maximum Humidity 76    
Minimum Humidity 14    
Precipitation  
Precipitation 0.00 in - - ()
Sea Level Pressure  
Sea Level Pressure 30.72 in    
Wind  
Wind Speed 10 mph (WNW)    
Max Wind Speed 20 mph    
Max Gust Speed 28 mph    
Visibility 10 miles    
Events      
Averages and records for this station are not official NWS values.
T = Trace of Precipitation, MM = Missing Value Source: NWS Daily Summary

Daily Weather History Graph

Daily Weather History Graph

Search for Another Location

Airport or City:

Trip Planner

Search our weather history database for the weather conditions in past years. The results will help you decide how hot, cold, wet, or windy it might be!

Date:

Astronomy

Nov. 03, 2014 Rise Set
Actual Time 6:22 AM EST 4:35 PM EST
Civil Twilight 5:53 AM EST 5:05 PM EST
Nautical Twilight 5:19 AM EST 5:39 PM EST
Astronomical Twilight 4:46 AM EST 6:11 PM EST
Moon 2:47 PM EST (11/3) 2:24 AM EST (11/3)
Length of Visible Light 11h 12m
Length of Day
10h 13m
Waxing Gibbous, 87% of the Moon is Illuminated
Nov 3
Waxing Gibbous
Nov 6
Full
Nov 14
Last Quarter
Nov 22
New
Nov 29
First Quarter

Hourly Weather History & Observations

Time (EST) Temp. Windchill Dew Point Humidity Pressure Visibility Wind Dir Wind Speed Gust Speed Precip Events Conditions
12:51 AM 36.9 °F 28.2 °F 14.0 °F 39% 30.59 in 10.0 mi WNW 13.8 mph 23.0 mph N/A   Clear
1:51 AM 36.9 °F 30.1 °F 13.1 °F 38% 30.61 in 10.0 mi WNW 9.2 mph - N/A   Clear
2:51 AM 36.0 °F 28.5 °F 13.1 °F 39% 30.60 in 10.0 mi WNW 10.4 mph - N/A   Clear
3:51 AM 36.0 °F 28.5 °F 14.0 °F 41% 30.62 in 10.0 mi West 10.4 mph - N/A   Clear
4:51 AM 34.9 °F 25.7 °F 15.1 °F 44% 30.63 in 10.0 mi WNW 13.8 mph - N/A   Clear
5:51 AM 34.9 °F 26.2 °F 14.0 °F 42% 30.65 in 10.0 mi WNW 12.7 mph 20.7 mph N/A   Clear
6:51 AM 34.9 °F 27.7 °F 14.0 °F 42% 30.69 in 10.0 mi WNW 9.2 mph - N/A   Clear
7:51 AM 36.9 °F 30.1 °F 14.0 °F 39% 30.72 in 10.0 mi WNW 9.2 mph - N/A   Clear
8:51 AM 39.9 °F 31.8 °F 13.1 °F 33% 30.73 in 10.0 mi NW 15.0 mph 20.7 mph N/A   Clear
9:51 AM 43.9 °F 36.2 °F 12.0 °F 27% 30.74 in 10.0 mi WNW 17.3 mph 26.5 mph N/A   Clear
10:51 AM 45.9 °F 39.4 °F 12.0 °F 25% 30.73 in 10.0 mi WNW 15.0 mph 21.9 mph N/A   Clear
11:51 AM 47.8 °F - 12.0 °F 24% 30.72 in 10.0 mi WNW 13.8 mph 26.5 mph N/A   Clear
12:51 PM 50.9 °F - 8.1 °F 18% 30.71 in 10.0 mi WNW 12.7 mph 23.0 mph N/A   Clear
1:51 PM 50.9 °F - 5.0 °F 16% 30.71 in 10.0 mi WNW 15.0 mph 21.9 mph N/A   Clear
2:51 PM 52.0 °F - 3.0 °F 14% 30.71 in 10.0 mi NNW 19.6 mph 27.6 mph N/A   Clear
3:51 PM 52.0 °F - 11.1 °F 20% 30.72 in 10.0 mi NW 10.4 mph 16.1 mph N/A   Clear
4:51 PM 45.0 °F - 20.1 °F 37% 30.74 in 10.0 mi Calm Calm - N/A   Clear
5:51 PM 39.9 °F - 25.2 °F 56% 30.77 in 10.0 mi Calm Calm - N/A   Clear
6:51 PM 37.9 °F - 23.0 °F 55% 30.79 in 10.0 mi Calm Calm - N/A   Clear
7:51 PM 34.9 °F - 23.0 °F 62% 30.80 in 10.0 mi Calm Calm - N/A   Clear
8:51 PM 34.0 °F - 24.1 °F 67% 30.81 in 10.0 mi Calm Calm - N/A   Partly Cloudy
9:51 PM 34.0 °F - 25.2 °F 70% 30.80 in 10.0 mi Calm Calm - N/A   Mostly Cloudy
10:51 PM 34.9 °F - 27.1 °F 73% 30.82 in 10.0 mi Calm Calm - N/A   Overcast
11:51 PM 32.9 °F - 26.1 °F 76% 30.82 in 10.0 mi Calm Calm - N/A   Clear